Voltar ao catálogo

THORAD DELTA 1 DEB

AtivoSSO
NORAD 8788·DEBRIS·🇺🇸 United States

Lançado Nov 15, 1974 de Vandenberg Space Force Base

Loading…

Próximas Passagens (próximas 24 horas)

TLE

AtualizadoSource: Space-Track

Época: Sep 14, 2026, 12:29 UTC

1 08788U 74089DQ  26257.52016475  .00000071  00000-0  86839-3 0  9996
2 08788 102.0950 356.3923 0070768 279.6686 147.4899 12.39849576346215

Acompanhe THORAD DELTA 1 DEB em tempo real com AllMySat

Download on the App Store